Total_Precipitation_Accumulation
0.93 1.03 1.06 0.85 0.61 0.49 0.47 0.45 0.44 0.47 0.52 0.60 0.55 0.52 0.58 0.62 0.59 0.66 0.75 0.86 0.95 1.00 1.02 1.04 1.10 1.17 1.24 1.26 1.35 1.38 1.37 1.27 0.96 0.83 0.73 0.63 0.66 0.66 0.69 0.62 0.66 0.69 0.62
0.80 0.79 0.65 0.47 0.37 0.34 0.30 0.25 0.22 0.22 0.22 0.29 0.32 0.32 0.40 0.51 0.52 0.57 0.61 0.63 0.68 0.73 0.76 0.81 0.87 0.94 1.01 1.07 1.11 1.15 1.23 1.28 1.15 0.97 0.83 0.69 0.63 0.65 0.80 0.84 0.83 0.77 0.74
0.44 0.42 0.39 0.32 0.30 0.26 0.21 0.19 0.17 0.16 0.16 0.20 0.23 0.26 0.29 0.39 0.50 0.56 0.58 0.54 0.53 0.51 0.51 0.55 0.63 0.71 0.79 0.87 0.90 0.97 1.07 1.14 1.19 1.05 0.96 0.87 0.73 0.69 0.79 0.81 0.89 1.05 0.99
0.25 0.23 0.22 0.23 0.23 0.23 0.23 0.23 0.18 0.14 0.16 0.15 0.14 0.16 0.24 0.34 0.43 0.51 0.55 0.52 0.49 0.48 0.48 0.48 0.51 0.52 0.55 0.66 0.77 0.93 1.04 1.17 1.22 1.13 1.08 1.05 0.93 0.84 0.89 0.95 1.02 1.11 1.19
0.15 0.15 0.18 0.18 0.18 0.18 0.20 0.20 0.17 0.14 0.12 0.08 0.06 0.08 0.16 0.21 0.26 0.40 0.45 0.45 0.48 0.45 0.46 0.50 0.51 0.48 0.45 0.47 0.49 0.65 0.82 1.02 1.15 1.19 1.18 1.20 1.12 1.03 0.94 1.00 1.11 1.23 1.34
0.03 0.05 0.08 0.11 0.13 0.15 0.15 0.15 0.13 0.11 0.09 0.07 0.05 0.05 0.07 0.08 0.14 0.21 0.30 0.40 0.47 0.50 0.50 0.54 0.51 0.46 0.49 0.46 0.45 0.48 0.56 0.67 0.83 0.93 1.00 1.06 1.10 1.17 1.23 1.25 1.27 1.32 1.39
0.01 0.01 0.02 0.03 0.04 0.05 0.05 0.05 0.05 0.04 0.04 0.03 0.04 0.04 0.04 0.04 0.04 0.07 0.17 0.33 0.47 0.48 0.47 0.61 0.67 0.60 0.59 0.61 0.62 0.55 0.47 0.44 0.55 0.72 0.83 0.88 0.95 1.04 1.24 1.31 1.33 1.33 1.23
0.00 0.00 0.00 0.01 0.01 0.02 0.02 0.02 0.02 0.02 0.02 0.03 0.04 0.07 0.04 0.02 0.02 0.03 0.08 0.23 0.38 0.42 0.42 0.54 0.79 0.83 0.73 0.69 0.73 0.81 0.71 0.55 0.51 0.55 0.68 0.77 0.81 0.95 1.25 1.46 1.43 1.23 1.15
0.00 0.00 0.00 0.00 0.01 0.01 0.01 0.01 0.00 0.01 0.02 0.02 0.03 0.05 0.04 0.03 0.02 0.03 0.06 0.17 0.28 0.32 0.36 0.48 0.64 0.79 0.73 0.69 0.69 0.75 0.78 0.67 0.60 0.59 0.54 0.60 0.70 0.86 1.11 1.34 1.41 1.34 1.20
0.00 0.00 0.00 0.00 0.01 0.01 0.01 0.01 0.01 0.01 0.02 0.02 0.01 0.01 0.01 0.01 0.02 0.03 0.05 0.10 0.15 0.15 0.22 0.38 0.53 0.54 0.50 0.55 0.67 0.78 0.87 0.71 0.60 0.67 0.65 0.66 0.68 0.85 1.16 1.33 1.38 1.31 1.18
0.00 0.00 0.01 0.01 0.01 0.02 0.02 0.02 0.01 0.01 0.02 0.02 0.02 0.02 0.02 0.01 0.02 0.03 0.05 0.07 0.09 0.09 0.14 0.28 0.37 0.35 0.34 0.41 0.53 0.67 0.80 0.65 0.67 0.80 0.83 0.80 0.85 0.90 1.02 1.14 1.28 1.33 1.19
0.00 0.01 0.01 0.01 0.01 0.01 0.03 0.02 0.01 0.01 0.02 0.03 0.05 0.05 0.05 0.04 0.02 0.03 0.05 0.07 0.08 0.09 0.15 0.21 0.25 0.22 0.22 0.26 0.33 0.45 0.57 0.64 0.72 0.84 0.90 0.85 0.80 0.86 0.91 0.95 1.04 1.12 1.07
0.00 0.01 0.00 0.01 0.01 0.01 0.01 0.01 0.01 0.01 0.01 0.02 0.04 0.06 0.06 0.07 0.04 0.02 0.03 0.05 0.06 0.10 0.13 0.17 0.18 0.19 0.22 0.24 0.27 0.35 0.49 0.68 0.85 0.84 0.77 0.74 0.75 0.81 0.81 0.90 0.99 1.03 1.03
0.00 0.00 0.00 0.00 0.01 0.02 0.01 0.00 0.01 0.01 0.01 0.01 0.02 0.04 0.05 0.07 0.04 0.03 0.05 0.07 0.08 0.11 0.13 0.13 0.14 0.19 0.22 0.23 0.29 0.40 0.55 0.75 0.83 0.75 0.70 0.60 0.62 0.75 0.78 0.78 0.82 0.86 0.91
0.00 0.00 0.00 0.00 0.01 0.02 0.01 0.00 0.00 0.00 0.00 0.01 0.02 0.03 0.02 0.03 0.02 0.01 0.03 0.05 0.05 0.06 0.10 0.16 0.21 0.28 0.34 0.40 0.50 0.57 0.58 0.62 0.68 0.61 0.65 0.59 0.56 0.63 0.66 0.64 0.65 0.62 0.63
0.00 0.00 0.00 0.00 0.01 0.01 0.02 0.01 0.00 0.00 0.00 0.00 0.00 0.01 0.02 0.00 0.00 0.01 0.01 0.02 0.02 0.05 0.12 0.21 0.29 0.37 0.43 0.50 0.55 0.56 0.55 0.56 0.59 0.56 0.55 0.55 0.50 0.50 0.51 0.52 0.53 0.54 0.57
0.00 0.00 0.00 0.00 0.00 0.00 0.01 0.03 0.03 0.02 0.01 0.00 0.00 0.00 0.00 0.00 0.00 0.01 0.01 0.02 0.02 0.04 0.10 0.22 0.42 0.47 0.43 0.48 0.51 0.49 0.42 0.36 0.36 0.37 0.36 0.35 0.34 0.35 0.39 0.40 0.40 0.45 0.48
0.00 0.00 0.00 0.00 0.00 0.00 0.00 0.00 0.01 0.03 0.04 0.04 0.02 0.00 0.00 0.00 0.00 0.01 0.01 0.03 0.03 0.04 0.07 0.14 0.27 0.30 0.32 0.36 0.34 0.31 0.25 0.19 0.18 0.18 0.18 0.19 0.21 0.23 0.26 0.29 0.29 0.28 0.33
0.00 0.00 0.00 0.00 0.00 0.00 0.00 0.00 0.00 0.00 0.01 0.03 0.03 0.01 0.00 0.00 0.01 0.01 0.01 0.02 0.03 0.05 0.07 0.12 0.15 0.17 0.17 0.16 0.15 0.13 0.12 0.11 0.10 0.09 0.11 0.14 0.15 0.16 0.16 0.17 0.20 0.23 0.23
0.00 0.00 0.00 0.00 0.00 0.00 0.00 0.00 0.00 0.00 0.01 0.01 0.01 0.01 0.01 0.02 0.03 0.02 0.02 0.02 0.03 0.04 0.05 0.06 0.06 0.06 0.05 0.05 0.05 0.06 0.07 0.08 0.08 0.07 0.07 0.09 0.11 0.12 0.11 0.11 0.11 0.13 0.15
0.00 0.00 0.00 0.00 0.00 0.00 0.00 0.00 0.00 0.00 0.01 0.01 0.00 0.00 0.00 0.01 0.02 0.03 0.03 0.02 0.03 0.03 0.03 0.03 0.03 0.02 0.03 0.03 0.04 0.04 0.05 0.08 0.09 0.08 0.08 0.08 0.09 0.10 0.10 0.10 0.09 0.09 0.11
0.00 0.00 0.00 0.00 0.00 0.00 0.00 0.00 0.01 0.01 0.01 0.01 0.01 0.00 0.00 0.01 0.01 0.02 0.02 0.02 0.02 0.02 0.02 0.03 0.03 0.03 0.04 0.04 0.04 0.05 0.06 0.08 0.11 0.11 0.10 0.09 0.09 0.09 0.08 0.08 0.08 0.09 0.09
0.00 0.00 0.00 0.00 0.00 0.00 0.00 0.00 0.01 0.01 0.02 0.01 0.01 0.01 0.01 0.01 0.01 0.02 0.02 0.02 0.02 0.02 0.03 0.03 0.04 0.05 0.05 0.06 0.06 0.07 0.08 0.09 0.11 0.14 0.15 0.13 0.10 0.09 0.08 0.08 0.07 0.07 0.08
0.00 0.00 0.00 0.00 0.00 0.00 0.00 0.00 0.00 0.01 0.02 0.02 0.02 0.01 0.01 0.01 0.01 0.01 0.02 0.02 0.02 0.03 0.03 0.04 0.05 0.05 0.06 0.07 0.08 0.08 0.10 0.11 0.12 0.14 0.17 0.18 0.15 0.11 0.10 0.09 0.08 0.08 0.09
0.00 0.00 0.00 0.00 0.00 0.00 0.00 0.00 0.00 0.01 0.02 0.02 0.02 0.02 0.01 0.01 0.01 0.01 0.01 0.02 0.02 0.03 0.03 0.04 0.04 0.05 0.05 0.06 0.08 0.09 0.12 0.12 0.11 0.12 0.15 0.17 0.17 0.16 0.14 0.12 0.11 0.10 0.10
0.00 0.00 0.00 0.00 0.00 0.00 0.00 0.00 0.00 0.01 0.02 0.02 0.01 0.01 0.01 0.01 0.01 0.01 0.01 0.01 0.02 0.02 0.03 0.03 0.04 0.04 0.05 0.06 0.08 0.11 0.12 0.10 0.09 0.10 0.13 0.16 0.18 0.18 0.18 0.18 0.16 0.15 0.14